SR8WXD Weather Reports


Display with metric or nautical units.
time (UTC)temp
F
wind
direction
speed
MPH
gust
MPH
rain 1hr
in
rain 24hr
in
rain mn
in
humidity
%
barometer
mb
20260902130534 75 219 4.0 5.0 0.00 0.00 0.00 100
20260902130334 75 245 4.0 6.0 0.00 0.00 0.00 100
20260902130133 74 249 6.0 8.0 0.00 0.00 0.00 100
20260902130033 74 247 6.0 9.0 0.00 0.00 0.00 100
20260902125933 74 236 6.0 9.0 0.00 0.00 0.00 100
20260902125732 74 220 4.0 7.0 0.00 0.00 0.00 100
20260902125530 75 224 3.0 5.0 0.00 0.00 0.00 100
20260902125327 75 233 3.0 5.0 0.00 0.00 0.00 100
20260902125126 75 217 3.0 5.0 0.00 0.00 0.00 100
20260902125026 75 225 3.0 4.0 0.00 0.00 0.00 100
20260902124925 75 238 3.0 5.0 0.00 0.00 0.00 100
20260902124724 75 190 2.0 5.0 0.00 0.00 0.00 100
20260902124524 75 177 3.0 8.0 0.00 0.00 0.00 100
20260902124324 76 229 4.0 8.0 0.00 0.00 0.00 100
20260902124123 76 224 4.0 8.0 0.00 0.00 0.00 100
20260902124022 76 218 4.0 8.0 0.00 0.00 0.00 100
20260902123922 76 221 4.0 8.0 0.00 0.00 0.00 100
20260902123722 76 231 3.0 4.0 0.00 0.00 0.00 100
20260902123521 76 251 4.0 6.0 0.00 0.00 0.00 100
20260902123320 76 242 6.0 8.0 0.00 0.00 0.00 100
20260902123119 75 231 6.0 8.0 0.00 0.00 0.00 100
20260902123019 75 216 4.0 8.0 0.00 0.00 0.00 100
20260902122918 75 180 3.0 6.0 0.00 0.00 0.00 100
20260902122718 75 53 4.0 7.0 0.00 0.00 0.00 100
20260902122518 76 180 3.0 7.0 0.00 0.00 0.00 100
20260902122314 77 202 4.0 7.0 0.00 0.00 0.00 100
20260902122113 77 225 3.0 5.0 0.00 0.00 0.00 100
20260902122012 77 216 2.0 5.0 0.00 0.00 0.00 100
20260902121708 76 199 3.0 5.0 0.00 0.00 0.00 100
20260902121501 76 201 4.0 6.0 0.00 0.00 0.00 100
20260902121303 75 199 3.0 6.0 0.00 0.00 0.00 100
20260902121103 74 207 4.0 7.0 0.00 0.00 0.00 100
20260902121000 73 209 4.0 7.0 0.00 0.00 0.00 100
20260902120902 72 217 3.0 6.0 0.00 0.00 0.00 100
20260902120702 72 221 2.0 4.0 0.00 0.00 0.00 100
20260902120458 72 220 3.0 7.0 0.00 0.00 0.00 100
20260902120302 72 220 7.0 9.0 0.00 0.00 0.00 100
20260902120058 73 228 5.0 9.0 0.00 0.00 0.00 100
20260902115957 74 239 4.0 6.0 0.00 0.00 0.00 100
20260902115857 73 256 4.0 5.0 0.00 0.00 0.00 100
20260902115656 73 254 5.0 8.0 0.00 0.00 0.00 100
20260902115455 72 240 5.0 8.0 0.00 0.00 0.00 100
20260902115251 72 236 6.0 10.0 0.00 0.00 0.00 100
20260902115050 72 235 8.0 10.0 0.00 0.00 0.00 100
20260902114950 72 235 6.0 10.0 0.00 0.00 0.00 100
20260902114850 73 236 5.0 8.0 0.00 0.00 0.00 100
20260902114648 74 241 3.0 6.0 0.00 0.00 0.00 100
20260902114447 77 225 2.0 4.0 0.00 0.00 0.00 100
20260902114247 76 223 4.0 8.0 0.00 0.00 0.00 100
20260902114047 76 226 6.0 10.0 0.00 0.00 0.00 100
20260902113946 76 222 6.0 10.0 0.00 0.00 0.00 100
20260902113846 76 218 6.0 10.0 0.00 0.00 0.00 100
20260902113645 76 210 5.0 8.0 0.00 0.00 0.00 100
20260902113444 76 218 5.0 9.0 0.00 0.00 0.00 100
20260902113244 75 231 5.0 9.0 0.00 0.00 0.00 100
20260902113043 74 235 4.0 7.0 0.00 0.00 0.00 100
20260902112943 75 234 5.0 7.0 0.00 0.00 0.00 100
20260902112842 75 231 6.0 10.0 0.00 0.00 0.00 100
20260902112641 76 228 6.0 10.0 0.00 0.00 0.00 100
20260902112438 75 228 5.0 7.0 0.00 0.00 0.00 100
20260902112237 75 248 5.0 8.0 0.00 0.00 0.00 100
20260902112036 75 268 6.0 8.0 0.00 0.00 0.00 100
20260902111934 76 269 7.0 8.0 0.00 0.00 0.00 100
20260902111836 76 257 7.0 10.0 0.00 0.00 0.00 100
20260902111636 76 235 7.0 10.0 0.00 0.00 0.00 100
20260902111433 76 235 6.0 10.0 0.00 0.00 0.00 100
20260902111238 76 220 2.0 6.0 0.00 0.00 0.00 100
20260902111034 75 250 4.0 9.0 0.00 0.00 0.00 100
20260902110931 76 255 6.0 9.0 0.00 0.00 0.00 100
20260902110833 76 234 6.0 9.0 0.00 0.00 0.00 100
20260902110632 75 232 4.0 7.0 0.00 0.00 0.00 100
20260902110429 75 242 6.0 8.0 0.00 0.00 0.00 100
20260902110228 75 250 7.0 9.0 0.00 0.00 0.00 100
20260902110027 75 232 8.0 12.0 0.00 0.00 0.00 100
20260902105927 75 229 9.0 12.0 0.00 0.00 0.00 100
20260902105826 75 219 7.0 12.0 0.00 0.00 0.00 100
20260902105627 73 218 4.0 9.0 0.00 0.00 0.00 100
20260902105424 73 234 6.0 10.0 0.00 0.00 0.00 100
20260902105220 72 253 7.0 10.0 0.00 0.00 0.00 100
20260902105018 72 248 8.0 10.0 0.00 0.00 0.00 100
20260902104919 72 250 8.0 10.0 0.00 0.00 0.00 100
20260902104818 73 251 8.0 10.0 0.00 0.00 0.00 100
20260902104619 74 243 7.0 10.0 0.00 0.00 0.00 100
20260902104416 74 250 4.0 8.0 0.00 0.00 0.00 100
20260902104215 73 228 6.0 9.0 0.00 0.00 0.00 100
20260902104015 73 248 7.0 12.0 0.00 0.00 0.00 100
20260902103915 74 261 7.0 12.0 0.00 0.00 0.00 100
20260902103815 73 254 6.0 11.0 0.00 0.00 0.00 100
20260902103614 73 253 5.0 7.0 0.00 0.00 0.00 100
20260902103412 72 243 5.0 8.0 0.00 0.00 0.00 100
20260902103211 71 234 6.0 10.0 0.00 0.00 0.00 100
20260902103010 71 246 8.0 12.0 0.00 0.00 0.00 100
20260902102911 71 248 8.0 12.0 0.00 0.00 0.00 100
20260902102811 71 246 7.0 12.0 0.00 0.00 0.00 100
20260902102610 70 236 5.0 8.0 0.00 0.00 0.00 100
20260902102409 70 224 5.0 8.0 0.00 0.00 0.00 100
20260902102206 71 239 6.0 8.0 0.00 0.00 0.00 100
20260902102004 72 251 6.0 8.0 0.00 0.00 0.00 100
20260902101903 72 258 5.0 8.0 0.00 0.00 0.00 100
20260902101803 72 263 6.0 8.0 0.00 0.00 0.00 100
20260902101603 72 245 5.0 7.0 0.00 0.00 0.00 100
20260902101401 73 246 6.0 9.0 0.00 0.00 0.00 100
20260902101210 73 243 7.0 9.0 0.00 0.00 0.00 100
20260902101009 74 234 8.0 12.0 0.00 0.00 0.00 100
20260902100859 74 229 8.0 12.0 0.00 0.00 0.00 100
20260902100809 74 227 8.0 11.0 0.00 0.00 0.00 100
20260902100606 75 227 7.0 11.0 0.00 0.00 0.00 100
20260902100356 74 225 5.0 9.0 0.00 0.00 0.00 100
20260902100155 73 225 6.0 11.0 0.00 0.00 0.00 100
20260902095956 73 225 7.0 11.0 0.00 0.00 0.00 100
20260902095854 73 227 7.0 11.0 0.00 0.00 0.00 100
20260902095754 73 226 7.0 10.0 0.00 0.00 0.00 100
20260902095554 74 235 6.0 10.0 0.00 0.00 0.00 100
20260902095352 74 247 6.0 10.0 0.00 0.00 0.00 100
20260902095151 73 241 7.0 13.0 0.00 0.00 0.00 100
20260902094952 73 226 7.0 13.0 0.00 0.00 0.00 100
20260902094848 73 223 6.0 11.0 0.00 0.00 0.00 100
20260902094747 73 230 5.0 8.0 0.00 0.00 0.00 100
20260902094546 73 240 6.0 8.0 0.00 0.00 0.00 100
20260902094345 73 231 5.0 8.0 0.00 0.00 0.00 100
20260902094131 72 224 4.0 8.0 0.00 0.00 0.00 100
20260902093931 71 236 5.0 8.0 0.00 0.00 0.00 100
20260902093830 71 244 4.0 6.0 0.00 0.00 0.00 100
20260902093731 71 237 5.0 9.0 0.00 0.00 0.00 100
20260902093529 71 239 6.0 9.0 0.00 0.00 0.00 100
20260902093327 71 244 4.0 9.0 0.00 0.00 0.00 100
20260902093127 70 252 6.0 9.0 0.00 0.00 0.00 100
20260902092927 70 245 4.0 9.0 0.00 0.00 0.00 100
20260902092825 70 230 4.0 7.0 0.00 0.00 0.00 100
20260902092725 70 235 4.0 7.0 0.00 0.00 0.00 100
20260902092525 70 255 4.0 6.0 0.00 0.00 0.00 100
20260902092322 70 238 5.0 6.0 0.00 0.00 0.00 100
20260902092116 69 225 5.0 8.0 0.00 0.00 0.00 100
20260902091915 69 234 5.0 8.0 0.00 0.00 0.00 100
20260902091814 69 256 5.0 7.0 0.00 0.00 0.00 100
20260902091713 69 260 5.0 7.0 0.00 0.00 0.00 100
20260902091512 69 254 6.0 8.0 0.00 0.00 0.00 100
20260902091312 69 252 5.0 8.0 0.00 0.00 0.00 100
20260902091110 69 241 3.0 6.0 0.00 0.00 0.00 100
20260902090909 69 225 2.0 3.0 0.00 0.00 0.00 100
20260902090808 69 215 2.0 3.0 0.00 0.00 0.00 100
20260902090708 69 213 3.0 4.0 0.00 0.00 0.00 100
20260902090507 68 220 4.0 5.0 0.00 0.00 0.00 100
20260902090307 68 245 4.0 6.0 0.00 0.00 0.00 100
20260902090106 68 234 4.0 7.0 0.00 0.00 0.00 100
20260902085906 69 229 4.0 7.0 0.00 0.00 0.00 100
20260902085805 69 225 4.0 7.0 0.00 0.00 0.00 100
20260902085705 69 225 4.0 5.0 0.00 0.00 0.00 100
20260902085504 69 232 5.0 8.0 0.00 0.00 0.00 100
20260902085305 69 235 6.0 8.0 0.00 0.00 0.00 100
20260902085100 69 222 5.0 8.0 0.00 0.00 0.00 100
20260902084859 68 220 4.0 6.0 0.00 0.00 0.00 100
20260902084757 68 224 4.0 6.0 0.00 0.00 0.00 100
20260902084658 68 227 5.0 8.0 0.00 0.00 0.00 100
20260902084458 68 238 6.0 10.0 0.00 0.00 0.00 100
20260902084255 68 246 5.0 10.0 0.00 0.00 0.00 100
20260902084055 67 258 5.0 6.0 0.00 0.00 0.00 100
20260902083855 67 242 3.0 6.0 0.00 0.00 0.00 100
20260902083752 67 232 2.0 4.0 0.00 0.00 0.00 100
20260902083654 67 228 3.0 7.0 0.00 0.00 0.00 100
20260902083453 68 239 6.0 8.0 0.00 0.00 0.00 100
20260902083251 68 254 6.0 8.0 0.00 0.00 0.00 100
20260902083052 68 247 4.0 7.0 0.00 0.00 0.00 100
20260902082851 68 234 3.0 6.0 0.00 0.00 0.00 100
20260902082750 68 227 4.0 7.0 0.00 0.00 0.00 100
20260902082651 68 221 4.0 7.0 0.00 0.00 0.00 100
20260902082452 67 218 4.0 7.0 0.00 0.00 0.00 100
20260902082249 67 243 5.0 7.0 0.00 0.00 0.00 100
20260902082050 67 244 4.0 6.0 0.00 0.00 0.00 100
20260902081850 68 240 6.0 8.0 0.00 0.00 0.00 100
20260902081744 67 249 6.0 8.0 0.00 0.00 0.00 100
20260902081648 67 239 6.0 9.0 0.00 0.00 0.00 100
20260902081448 67 235 6.0 9.0 0.00 0.00 0.00 100
20260902081242 67 253 6.0 9.0 0.00 0.00 0.00 100
20260902081047 67 246 5.0 8.0 0.00 0.00 0.00 100
20260902080846 67 225 5.0 7.0 0.00 0.00 0.00 100
20260902080740 67 231 5.0 7.0 0.00 0.00 0.00 100
20260902080645 67 221 6.0 7.0 0.00 0.00 0.00 100
20260902080445 67 227 4.0 7.0 0.00 0.00 0.00 100
20260902080238 67 228 4.0 8.0 0.00 0.00 0.00 100
20260902080044 67 225 3.0 5.0 0.00 0.00 0.00 100
20260902075844 67 239 2.0 4.0 0.00 0.00 0.00 100
20260902075737 67 247 3.0 5.0 0.00 0.00 0.00 100
20260902075644 67 245 4.0 7.0 0.00 0.00 0.00 100
20260902075443 67 242 6.0 7.0 0.00 0.00 0.00 100
20260902075236 66 233 4.0 7.0 0.00 0.00 0.00 100
20260902075031 66 248 4.0 6.0 0.00 0.00 0.00 100
20260902074831 67 254 4.0 6.0 0.00 0.00 0.00 100
20260902074730 66 250 4.0 6.0 0.00 0.00 0.00 100
20260902074629 66 255 4.0 5.0 0.00 0.00 0.00 100
20260902074429 66 250 5.0 8.0 0.00 0.00 0.00 100
20260902074228 66 241 3.0 6.0 0.00 0.00 0.00 100
20260902074028 66 245 4.0 8.0 0.00 0.00 0.00 100
20260902073827 66 256 2.0 8.0 0.00 0.00 0.00 100
20260902073727 66 251 1.0 4.0 0.00 0.00 0.00 100
20260902073626 66 235 2.0 4.0 0.00 0.00 0.00 100
20260902073426 66 206 1.0 3.0 0.00 0.00 0.00 100
20260902073226 65 210 2.0 4.0 0.00 0.00 0.00 100
20260902073026 65 231 4.0 6.0 0.00 0.00 0.00 100
20260902072825 65 254 4.0 6.0 0.00 0.00 0.00 100
20260902072725 65 263 4.0 6.0 0.00 0.00 0.00 100
20260902072625 65 253 4.0 6.0 0.00 0.00 0.00 100
20260902072425 65 224 2.0 6.0 0.00 0.00 0.00 100
20260902072224 65 209 3.0 5.0 0.00 0.00 0.00 100
20260902072020 65 223 5.0 7.0 0.00 0.00 0.00 100
20260902071820 65 234 5.0 7.0 0.00 0.00 0.00 100
20260902071719 65 229 4.0 6.0 0.00 0.00 0.00 100
20260902071619 65 218 3.0 6.0 0.00 0.00 0.00 100
20260902071419 65 212 3.0 5.0 0.00 0.00 0.00 100
20260902071219 65 224 5.0 6.0 0.00 0.00 0.00 100
20260902071018 64 226 4.0 6.0 0.00 0.00 0.00 100
20260902070818 64 223 4.0 6.0 0.00 0.00 0.00 100
20260902070717 64 224 5.0 7.0 0.00 0.00 0.00 100
20260902070403 64 219 6.0 7.0 0.00 0.00 0.00 100
20260902070202 64 214 5.0 8.0 0.00 0.00 0.00 100
20260902070000 63 213 3.0 6.0 0.00 0.00 0.00 100
20260902065759 63 216 5.0 9.0 0.00 0.00 0.00 100
20260902065700 63 217 6.0 9.0 0.00 0.00 0.00 100
20260902065559 63 220 6.0 9.0 0.00 0.00 0.00 100
20260902065358 64 220 6.0 8.0 0.00 0.00 0.00 100
20260902065157 63 213 4.0 6.0 0.00 0.00 0.00 100
20260902065005 63 220 4.0 7.0 0.00 0.00 0.00 100
20260902064751 63 227 5.0 7.0 0.00 0.00 0.00 100
20260902064651 63 223 4.0 6.0 0.00 0.00 0.00 100
20260902064551 63 220 4.0 6.0 0.00 0.00 0.00 100
20260902064351 63 227 4.0 6.0 0.00 0.00 0.00 100
20260902064200 63 221 4.0 6.0 0.00 0.00 0.00 100
20260902063950 63 221 5.0 8.0 0.00 0.00 0.00 100
20260902063749 63 226 4.0 7.0 0.00 0.00 0.00 100
20260902063648 63 231 5.0 8.0 0.00 0.00 0.00 100
20260902063549 63 231 5.0 8.0 0.00 0.00 0.00 100
20260902063348 63 229 4.0 5.0 0.00 0.00 0.00 100
20260902063147 63 242 4.0 5.0 0.00 0.00 0.00 100
20260902062946 63 235 3.0 4.0 0.00 0.00 0.00 100
20260902062746 63 219 3.0 4.0 0.00 0.00 0.00 100
20260902062646 63 219 3.0 4.0 0.00 0.00 0.00 100
20260902062546 63 224 3.0 5.0 0.00 0.00 0.00 100
20260902062346 62 229 3.0 5.0 0.00 0.00 0.00 100
20260902062145 62 225 3.0 5.0 0.00 0.00 0.00 100
20260902061942 62 229 3.0 4.0 0.00 0.00 0.00 100
20260902061742 63 231 2.0 4.0 0.00 0.00 0.00 100
20260902061641 62 240 2.0 4.0 0.00 0.00 0.00 100
20260902061541 62 245 2.0 4.0 0.00 0.00 0.00 100
20260902061341 62 233 2.0 3.0 0.00 0.00 0.00 100
20260902061141 62 225 3.0 4.0 0.00 0.00 0.00 100
20260902060940 62 235 3.0 4.0 0.00 0.00 0.00 100
20260902060739 62 227 3.0 4.0 0.00 0.00 0.00 100
20260902060639 61 229 3.0 4.0 0.00 0.00 0.00 100
20260902060538 61 232 3.0 4.0 0.00 0.00 0.00 100
20260902060337 61 228 3.0 5.0 0.00 0.00 0.00 100
20260902060137 61 219 3.0 4.0 0.00 0.00 0.00 100
20260902055936 61 219 4.0 5.0 0.00 0.00 0.00 100
20260902055746 61 217 4.0 5.0 0.00 0.00 0.00 100
20260902055635 61 218 3.0 5.0 0.00 0.00 0.00 100
20260902055535 61 218 3.0 5.0 0.00 0.00 0.00 100
20260902055335 61 215 2.0 3.0 0.00 0.00 0.00 100
20260902055134 60 215 2.0 4.0 0.00 0.00 0.00 100
20260902054930 60 214 1.0 1.0 0.00 0.00 0.00 100
20260902054730 60 213 1.0 2.0 0.00 0.00 0.00 100
20260902054630 60 211 1.0 2.0 0.00 0.00 0.00 100
20260902054530 60 211 1.0 2.0 0.00 0.00 0.00 100
20260902054330 60 208 2.0 2.0 0.00 0.00 0.00 100
20260902054130 60 208 2.0 2.0 0.00 0.00 0.00 100
20260902053930 59 208 2.0 2.0 0.00 0.00 0.00 100
20260902053729 59 208 2.0 3.0 0.00 0.00 0.00 100
20260902053629 59 208 2.0 3.0 0.00 0.00 0.00 100
20260902053529 59 208 3.0 3.0 0.00 0.00 0.00 100
20260902053329 59 209 2.0 3.0 0.00 0.00 0.00 100
20260902053129 59 208 2.0 3.0 0.00 0.00 0.00 100
20260902052928 59 210 3.0 3.0 0.00 0.00 0.00 100
20260902052728 59 210 2.0 3.0 0.00 0.00 0.00 100
20260902052628 59 208 3.0 3.0 0.00 0.00 0.00 100
20260902052528 59 208 3.0 4.0 0.00 0.00 0.00 100
20260902052327 59 206 3.0 4.0 0.00 0.00 0.00 100
20260902052126 59 206 3.0 4.0 0.00 0.00 0.00 100
20260902051924 58 208 3.0 4.0 0.00 0.00 0.00 100
20260902051722 58 211 4.0 4.0 0.00 0.00 0.00 100
20260902051620 58 211 4.0 4.0 0.00 0.00 0.00 100
20260902051521 58 211 3.0 4.0 0.00 0.00 0.00 100
20260902051321 58 208 3.0 4.0 0.00 0.00 0.00 100
20260902051118 58 208 3.0 4.0 0.00 0.00 0.00 100
20260902050919 58 211 4.0 4.0 0.00 0.00 0.00 100
20260902050719 58 210 3.0 4.0 0.00 0.00 0.00 100
20260902050616 58 212 3.0 4.0 0.00 0.00 0.00 100
20260902050518 58 216 3.0 4.0 0.00 0.00 0.00 100
20260902050326 58 212 4.0 4.0 0.00 0.00 0.00 100
20260902050114 58 206 4.0 4.0 0.00 0.00 0.00 100
20260902045914 58 208 3.0 4.0 0.00 0.00 0.00 100
20260902045712 58 207 3.0 4.0 0.00 0.00 0.00 100
20260902045612 58 202 3.0 4.0 0.00 0.00 0.00 100
20260902045511 58 202 3.0 4.0 0.00 0.00 0.00 100
20260902045310 58 202 3.0 4.0 0.00 0.00 0.00 100
20260902045108 58 202 3.0 4.0 0.00 0.00 0.00 100
20260902044904 58 202 4.0 4.0 0.00 0.00 0.00 100
20260902044703 58 202 4.0 4.0 0.00 0.00 0.00 100
20260902044603 58 205 4.0 4.0 0.00 0.00 0.00 100
20260902044503 57 205 4.0 5.0 0.00 0.00 0.00 100
20260902044302 57 202 4.0 5.0 0.00 0.00 0.00 100
20260902044101 57 202 4.0 5.0 0.00 0.00 0.00 100
20260902043900 57 205 4.0 5.0 0.00 0.00 0.00 100
20260902043700 57 209 4.0 4.0 0.00 0.00 0.00 100
20260902043559 57 205 4.0 4.0 0.00 0.00 0.00 100
20260902043458 57 202 4.0 4.0 0.00 0.00 0.00 100
20260902043258 57 205 4.0 4.0 0.00 0.00 0.00 100
20260902043057 57 205 4.0 4.0 0.00 0.00 0.00 100
20260902042843 57 202 4.0 4.0 0.00 0.00 0.00 100
20260902042642 57 202 4.0 5.0 0.00 0.00 0.00 100
20260902042542 57 205 4.0 5.0 0.00 0.00 0.00 100
20260902042441 56 205 4.0 4.0 0.00 0.00 0.00 100
20260902042251 56 202 4.0 4.0 0.00 0.00 0.00 100
20260902042040 56 202 4.0 4.0 0.00 0.00 0.00 100
20260902041837 56 202 4.0 4.0 0.00 0.00 0.00 100
20260902041635 56 202 4.0 4.0 0.00 0.00 0.00 100
20260902041535 56 205 4.0 4.0 0.00 0.00 0.00 100
20260902041434 56 205 4.0 4.0 0.00 0.00 0.00 100
20260902041234 56 202 4.0 4.0 0.00 0.00 0.00 100
20260902041033 55 204 3.0 4.0 0.00 0.00 0.00 100
20260902040832 55 208 3.0 4.0 0.00 0.00 0.00 100
20260902040631 55 208 3.0 4.0 0.00 0.00 0.00 100
20260902040531 56 208 4.0 4.0 0.00 0.00 0.00 100
20260902040431 56 208 4.0 4.0 0.00 0.00 0.00 100
20260902040231 56 208 4.0 4.0 0.00 0.00 0.00 100
20260902040031 56 211 4.0 4.0 0.00 0.00 0.00 100
20260902035830 55 208 4.0 4.0 0.00 0.00 0.00 100
20260902035629 55 211 3.0 4.0 0.00 0.00 0.00 100
20260902035529 55 211 3.0 4.0 0.00 0.00 0.00 100
20260902035429 55 214 3.0 4.0 0.00 0.00 0.00 100
20260902035228 56 214 3.0 4.0 0.00 0.00 0.00 100
20260902035028 56 211 3.0 4.0 0.00 0.00 0.00 100
20260902034825 56 208 3.0 4.0 0.00 0.00 0.00 100
20260902034625 55 208 3.0 3.0 0.00 0.00 0.00 100
20260902034524 55 208 3.0 3.0 0.00 0.00 0.00 100
20260902034425 55 208 3.0 3.0 0.00 0.00 0.00 100
20260902034224 55 208 3.0 3.0 0.00 0.00 0.00 100
20260902034023 55 208 3.0 3.0 0.00 0.00 0.00 100
20260902033823 55 208 3.0 3.0 0.00 0.00 0.00 100
20260902033623 55 208 3.0 3.0 0.00 0.00 0.00 100
20260902033522 55 208 3.0 3.0 0.00 0.00 0.00 100
20260902033422 55 208 3.0 3.0 0.00 0.00 0.00 100
20260902033221 55 208 3.0 3.0 0.00 0.00 0.00 100
20260902033021 55 208 2.0 3.0 0.00 0.00 0.00 100
20260902032820 55 208 3.0 3.0 0.00 0.00 0.00 100
20260902032620 55 208 3.0 4.0 0.00 0.00 0.00 100
20260902032520 55 208 3.0 4.0 0.00 0.00 0.00 100
20260902032419 55 208 3.0 4.0 0.00 0.00 0.00 100
20260902032219 55 208 4.0 4.0 0.00 0.00 0.00 100
20260902032018 55 208 4.0 4.0 0.00 0.00 0.00 100
20260902031816 55 208 4.0 4.0 0.00 0.00 0.00 100
20260902031616 55 208 3.0 4.0 0.00 0.00 0.00 100
20260902031514 55 208 4.0 4.0 0.00 0.00 0.00 100
20260902031415 55 208 4.0 4.0 0.00 0.00 0.00 100
20260902031214 55 208 4.0 4.0 0.00 0.00 0.00 100
20260902031013 55 208 4.0 4.0 0.00 0.00 0.00 100
20260902030814 55 208 4.0 4.0 0.00 0.00 0.00 100
20260902030613 55 208 3.0 4.0 0.00 0.00 0.00 100
20260902030511 55 208 3.0 4.0 0.00 0.00 0.00 100
20260902030412 55 208 3.0 4.0 0.00 0.00 0.00 100
20260902030212 55 208 3.0 4.0 0.00 0.00 0.00 100
20260902030010 55 208 3.0 4.0 0.00 0.00 0.00 100
20260902025811 55 208 3.0 4.0 0.00 0.00 0.00 100
20260902025611 55 211 3.0 4.0 0.00 0.00 0.00 100
20260902025510 55 211 3.0 4.0 0.00 0.00 0.00 100
20260902025411 55 211 3.0 3.0 0.00 0.00 0.00 100
20260902025210 55 211 3.0 3.0 0.00 0.00 0.00 100
20260902025008 55 208 3.0 3.0 0.00 0.00 0.00 100
20260902024809 55 211 3.0 3.0 0.00 0.00 0.00 100
20260902024608 55 211 3.0 3.0 0.00 0.00 0.00 100
20260902024502 55 208 3.0 3.0 0.00 0.00 0.00 100
20260902024408 55 211 3.0 3.0 0.00 0.00 0.00 100
20260902024207 55 219 3.0 4.0 0.00 0.00 0.00 100
20260902024002 55 215 3.0 4.0 0.00 0.00 0.00 100
20260902023807 55 211 4.0 4.0 0.00 0.00 0.00 100
20260902023607 55 208 4.0 4.0 0.00 0.00 0.00 100
20260902023500 55 208 4.0 4.0 0.00 0.00 0.00 100
20260902023406 55 208 4.0 4.0 0.00 0.00 0.00 100
20260902023206 55 208 4.0 4.0 0.00 0.00 0.00 100
20260902022959 55 208 4.0 4.0 0.00 0.00 0.00 100
20260902022804 55 208 4.0 4.0 0.00 0.00 0.00 100
20260902022604 55 208 4.0 4.0 0.00 0.00 0.00 100
20260902022457 55 208 4.0 4.0 0.00 0.00 0.00 100
20260902022403 55 208 4.0 4.0 0.00 0.00 0.00 100
20260902022203 56 211 4.0 4.0 0.00 0.00 0.00 100
20260902021955 56 211 4.0 4.0 0.00 0.00 0.00 100
20260902021751 56 208 4.0 4.0 0.00 0.00 0.00 100
20260902021550 56 211 4.0 4.0 0.00 0.00 0.00 100
20260902021450 56 211 4.0 5.0 0.00 0.00 0.00 100
20260902021400 56 211 4.0 5.0 0.00 0.00 0.00 100
20260902021148 56 212 4.0 5.0 0.00 0.00 0.00 100
20260902020947 56 213 5.0 5.0 0.00 0.00 0.00 100
20260902020746 56 217 5.0 5.0 0.00 0.00 0.00 100
20260902020546 56 213 5.0 6.0 0.00 0.00 0.00 100
20260902020446 56 217 5.0 6.0 0.00 0.00 0.00 100
20260902020346 56 218 5.0 6.0 0.00 0.00 0.00 100
20260902020145 56 216 5.0 6.0 0.00 0.00 0.00 100
20260902015945 56 215 4.0 5.0 0.00 0.00 0.00 100
20260902015744 56 209 4.0 5.0 0.00 0.00 0.00 100
20260902015543 55 210 4.0 4.0 0.00 0.00 0.00 100
20260902015443 55 210 4.0 4.0 0.00 0.00 0.00 100
20260902015132 55 208 4.0 4.0 0.00 0.00 0.00 100
20260902014931 55 208 3.0 4.0 0.00 0.00 0.00 100
20260902014729 56 214 3.0 4.0 0.00 0.00 0.00 100
20260902014528 56 210 3.0 3.0 0.00 0.00 0.00 100
20260902014427 56 208 2.0 3.0 0.00 0.00 0.00 100
20260902014328 56 208 2.0 3.0 0.00 0.00 0.00 100
20260902014127 57 216 2.0 3.0 0.00 0.00 0.00 100
20260902013926 56 220 3.0 3.0 0.00 0.00 0.00 100
20260902013727 56 219 3.0 4.0 0.00 0.00 0.00 100
20260902013526 56 219 3.0 4.0 0.00 0.00 0.00 100
20260902013425 56 220 3.0 4.0 0.00 0.00 0.00 100
20260902013325 56 221 3.0 4.0 0.00 0.00 0.00 100
20260902013125 56 225 4.0 4.0 0.00 0.00 0.00 100
20260902012924 57 228 4.0 4.0 0.00 0.00 0.00 100
20260902012723 57 235 4.0 4.0 0.00 0.00 0.00 100
20260902012523 57 234 4.0 5.0 0.00 0.00 0.00 100
20260902012423 57 237 4.0 5.0 0.00 0.00 0.00 100
20260902012323 56 237 4.0 5.0 0.00 0.00 0.00 100
20260902012122 56 236 4.0 4.0 0.00 0.00 0.00 100
20260902011922 56 236 4.0 4.0 0.00 0.00 0.00 100
20260902011718 56 232 4.0 4.0 0.00 0.00 0.00 100
20260902011518 56 230 4.0 4.0 0.00 0.00 0.00 100
20260902011417 57 228 3.0 4.0 0.00 0.00 0.00 100
20260902011318 57 230 3.0 4.0 0.00 0.00 0.00 100
20260902011117 57 229 3.0 4.0 0.00 0.00 0.00 100
20260902010915 57 231 3.0 4.0 0.00 0.00 0.00 100
20260902010717 57 226 2.0 3.0 0.00 0.00 0.00 100
20260902010515 57 219 2.0 3.0 0.00 0.00 0.00 100
20260902010414 57 219 2.0 3.0 0.00 0.00 0.00 100
20260902010315 57 219 2.0 3.0 0.00 0.00 0.00 100
20260902010115 57 215 2.0 3.0 0.00 0.00 0.00 100
20260902005913 57 212 2.0 3.0 0.00 0.00 0.00 100
20260902005714 57 212 2.0 3.0 0.00 0.00 0.00 100
20260902005514 57 214 2.0 3.0 0.00 0.00 0.00 100
20260902005412 57 214 2.0 3.0 0.00 0.00 0.00 100
20260902005314 57 214 2.0 2.0 0.00 0.00 0.00 100
20260902005114 57 214 2.0 2.0 0.00 0.00 0.00 100
20260902004911 57 214 2.0 2.0 0.00 0.00 0.00 100
20260902004508 57 218 2.0 3.0 0.00 0.00 0.00 100
20260902004407 57 220 3.0 3.0 0.00 0.00 0.00 100
20260902004307 57 222 3.0 4.0 0.00 0.00 0.00 100
20260902004107 57 224 3.0 4.0 0.00 0.00 0.00 100
20260902003905 57 227 3.0 4.0 0.00 0.00 0.00 100
20260902003706 57 224 3.0 4.0 0.00 0.00 0.00 100
20260902003506 57 226 3.0 4.0 0.00 0.00 0.00 100
20260902003404 57 227 3.0 4.0 0.00 0.00 0.00 100
20260902003306 57 228 4.0 4.0 0.00 0.00 0.00 100
20260902003105 57 232 4.0 4.0 0.00 0.00 0.00 100
20260902002902 57 230 3.0 4.0 0.00 0.00 0.00 100
20260902002703 57 226 4.0 5.0 0.00 0.00 0.00 100
20260902002502 57 227 4.0 5.0 0.00 0.00 0.00 100
20260902002400 57 226 4.0 5.0 0.00 0.00 0.00 100
20260902002306 57 227 4.0 5.0 0.00 0.00 0.00 100
20260902002102 57 230 4.0 6.0 0.00 0.00 0.00 100
20260902001900 57 237 5.0 6.0 0.00 0.00 0.00 100
20260902001656 57 237 4.0 5.0 0.00 0.00 0.00 100
20260902001456 57 239 4.0 5.0 0.00 0.00 0.00 100
20260902001354 57 246 4.0 5.0 0.00 0.00 0.00 100
20260902001255 57 243 4.0 6.0 0.00 0.00 0.00 100
20260902001054 57 240 4.0 6.0 0.00 0.00 0.00 100
20260902000852 57 233 4.0 6.0 0.00 0.00 0.00 100
20260902000651 57 231 5.0 6.0 0.00 0.00 0.00 100
20260902000451 57 232 4.0 6.0 0.00 0.00 0.00 100
20260902000348 57 233 4.0 6.0 0.00 0.00 0.00 100
20260902000249 57 232 4.0 6.0 0.00 0.00 0.00 100
20260902000047 57 234 4.0 6.0 0.00 0.00 0.00 100
20260901235846 57 233 4.0 7.0 0.00 0.00 0.00 100
20260901235645 57 235 5.0 7.0 0.00 0.00 0.00 100
20260901235445 57 241 5.0 6.0 0.00 0.00 0.00 100
20260901235344 57 235 5.0 7.0 0.00 0.00 0.00 100
20260901235243 57 234 5.0 7.0 0.00 0.00 0.00 100
20260901235041 57 230 5.0 7.0 0.00 0.00 0.00 100
20260901234840 57 227 5.0 7.0 0.00 0.00 0.00 100
20260901234636 57 229 5.0 7.0 0.00 0.00 0.00 100
20260901234435 57 239 5.0 6.0 0.00 0.00 0.00 100
20260901234334 57 234 5.0 6.0 0.00 0.00 0.00 100
20260901234233 57 227 5.0 6.0 0.00 0.00 0.00 100
20260901234031 57 223 5.0 7.0 0.00 0.00 0.00 100
20260901233831 57 221 6.0 7.0 0.00 0.00 0.00 100
20260901233641 57 221 6.0 8.0 0.00 0.00 0.00 100
20260901233429 57 224 6.0 7.0 0.00 0.00 0.00 100
20260901233329 57 228 6.0 7.0 0.00 0.00 0.00 100
20260901233228 57 229 6.0 7.0 0.00 0.00 0.00 100
20260901233027 57 227 5.0 7.0 0.00 0.00 0.00 100
20260901232826 57 231 5.0 7.0 0.00 0.00 0.00 100
20260901232625 58 230 6.0 7.0 0.00 0.00 0.00 100
20260901232424 58 228 6.0 8.0 0.00 0.00 0.00 100
20260901232324 57 229 5.0 8.0 0.00 0.00 0.00 100
20260901232224 57 228 5.0 8.0 0.00 0.00 0.00 100
20260901232023 57 228 5.0 7.0 0.00 0.00 0.00 100
20260901231822 57 230 5.0 8.0 0.00 0.00 0.00 100
20260901231608 57 229 5.0 6.0 0.00 0.00 0.00 100
20260901231406 57 230 5.0 6.0 0.00 0.00 0.00 100
20260901231302 57 230 5.0 6.0 0.00 0.00 0.00 100
20260901231205 57 230 5.0 7.0 0.00 0.00 0.00 100
20260901231003 57 235 5.0 7.0 0.00 0.00 0.00 100
20260901230759 58 232 5.0 7.0 0.00 0.00 0.00 100
20260901230601 58 230 5.0 7.0 0.00 0.00 0.00 100
20260901230400 58 233 6.0 7.0 0.00 0.00 0.00 100
20260901230257 58 233 6.0 7.0 0.00 0.00 0.00 100
20260901230200 58 231 6.0 7.0 0.00 0.00 0.00 100
20260901225959 58 230 6.0 7.0 0.00 0.00 0.00 100
20260901225754 58 239 6.0 8.0 0.00 0.00 0.00 100
20260901225555 58 230 5.0 7.0 0.00 0.00 0.00 100
20260901225355 58 223 5.0 7.0 0.00 0.00 0.00 100
20260901225154 58 221 4.0 6.0 0.00 0.00 0.00 100
20260901224954 58 221 4.0 5.0 0.00 0.00 0.00 100
20260901224749 58 221 4.0 5.0 0.00 0.00 0.00 100
20260901224552 58 222 4.0 5.0 0.00 0.00 0.00 100
20260901224351 58 228 4.0 6.0 0.00 0.00 0.00 100
20260901224244 58 225 4.0 6.0 0.00 0.00 0.00 100
20260901224151 58 223 4.0 6.0 0.00 0.00 0.00 100
20260901223951 58 218 4.0 5.0 0.00 0.00 0.00 100
20260901223742 58 217 4.0 5.0 0.00 0.00 0.00 100
20260901223549 58 222 4.0 5.0 0.00 0.00 0.00 100
20260901223348 58 225 4.0 6.0 0.00 0.00 0.00 100
20260901223239 58 228 4.0 6.0 0.00 0.00 0.00 100
20260901223147 58 233 4.0 6.0 0.00 0.00 0.00 100
20260901222947 58 230 3.0 5.0 0.00 0.00 0.00 100
20260901222746 58 225 4.0 5.0 0.00 0.00 0.00 100
20260901222546 58 221 4.0 5.0 0.00 0.00 0.00 100
20260901222346 58 226 4.0 5.0 0.00 0.00 0.00 100
20260901222237 58 226 4.0 6.0 0.00 0.00 0.00 100
20260901222145 58 224 4.0 6.0 0.00 0.00 0.00 100
20260901221945 58 223 4.0 5.0 0.00 0.00 0.00 100
20260901221736 58 226 4.0 6.0 0.00 0.00 0.00 100
20260901221531 58 231 4.0 6.0 0.00 0.00 0.00 100
20260901221331 58 230 4.0 6.0 0.00 0.00 0.00 100
20260901221231 58 229 4.0 5.0 0.00 0.00 0.00 100
20260901220940 58 226 4.0 5.0 0.00 0.00 0.00 100
20260901220729 58 225 3.0 4.0 0.00 0.00 0.00 100
20260901220529 58 227 3.0 4.0 0.00 0.00 0.00 100
20260901220327 58 227 2.0 3.0 0.00 0.00 0.00 100
20260901220227 58 225 3.0 4.0 0.00 0.00 0.00 100
20260901220127 58 228 3.0 4.0 0.00 0.00 0.00 100
20260901215926 58 240 2.0 4.0 0.00 0.00 0.00 100
20260901215726 58 234 2.0 3.0 0.00 0.00 0.00 100
20260901215526 58 228 2.0 3.0 0.00 0.00 0.00 100
20260901215326 58 228 3.0 3.0 0.00 0.00 0.00 100
20260901215226 58 230 2.0 3.0 0.00 0.00 0.00 100
20260901215124 59 232 2.0 3.0 0.00 0.00 0.00 100
20260901214924 59 228 2.0 3.0 0.00 0.00 0.00 100
20260901214724 58 228 2.0 3.0 0.00 0.00 0.00 100
20260901214520 58 232 1.0 2.0 0.00 0.00 0.00 100
20260901214320 59 232 2.0 2.0 0.00 0.00 0.00 100
20260901214220 59 232 2.0 2.0 0.00 0.00 0.00 100
20260901214120 59 234 2.0 2.0 0.00 0.00 0.00 100
20260901213919 59 241 1.0 2.0 0.00 0.00 0.00 100
20260901213719 59 237 1.0 1.0 0.00 0.00 0.00 100
20260901213519 59 237 1.0 2.0 0.00 0.00 0.00 100
20260901213319 59 237 1.0 2.0 0.00 0.00 0.00 100
20260901213219 59 237 1.0 2.0 0.00 0.00 0.00 100
20260901213118 59 237 1.0 1.0 0.00 0.00 0.00 100
20260901212918 59 237 1.0 1.0 0.00 0.00 0.00 100
20260901212718 59 237 1.0 1.0 0.00 0.00 0.00 100
20260901212518 59 237 1.0 1.0 0.00 0.00 0.00 100
20260901212318 59 237 1.0 1.0 0.00 0.00 0.00 100
20260901212218 59 237 1.0 1.0 0.00 0.00 0.00 100
20260901212118 59 237 1.0 1.0 0.00 0.00 0.00 100
20260901211917 59 237 1.0 2.0 0.00 0.00 0.00 100
20260901211717 59 238 1.0 2.0 0.00 0.00 0.00 100
20260901211514 59 239 2.0 2.0 0.00 0.00 0.00 100
20260901211314 58 238 2.0 2.0 0.00 0.00 0.00 100
20260901211214 58 237 2.0 2.0 0.00 0.00 0.00 100
20260901211114 58 235 2.0 2.0 0.00 0.00 0.00 100
20260901210913 58 232 2.0 2.0 0.00 0.00 0.00 100
20260901210713 58 236 2.0 2.0 0.00 0.00 0.00 100
20260901210512 58 237 2.0 3.0 0.00 0.00 0.00 100
20260901210312 58 235 3.0 3.0 0.00 0.00 0.00 100
20260901210212 58 232 2.0 3.0 0.00 0.00 0.00 100
20260901210112 58 228 2.0 3.0 0.00 0.00 0.00 100
20260901205912 58 226 2.0 3.0 0.00 0.00 0.00 100
20260901205711 58 232 2.0 3.0 0.00 0.00 0.00 100
20260901205510 58 235 1.0 2.0 0.00 0.00 0.00 100
20260901205310 58 237 1.0 1.0 0.00 0.00 0.00 100
20260901205209 58 237 1.0 1.0 0.00 0.00 0.00 100
20260901205110 58 237 1.0 1.0 0.00 0.00 0.00 100
20260901204909 58 237 1.0 1.0 0.00 0.00 0.00 100
20260901204709 58 237 1.0 2.0 0.00 0.00 0.00 100
20260901204505 59 241 2.0 2.0 0.00 0.00 0.00 100
20260901204305 59 242 2.0 3.0 0.00 0.00 0.00 100
20260901204205 59 245 2.0 3.0 0.00 0.00 0.00 100
20260901203855 59 254 3.0 4.0 0.00 0.00 0.00 100
20260901203655 59 257 4.0 5.0 0.00 0.00 0.00 100
20260901203454 59 257 4.0 6.0 0.00 0.00 0.00 100
20260901203253 59 262 4.0 6.0 0.00 0.00 0.00 100
20260901203152 59 259 4.0 5.0 0.00 0.00 0.00 100
20260901203052 59 254 4.0 4.0 0.00 0.00 0.00 100
20260901202852 59 246 4.0 5.0 0.00 0.00 0.00 100
20260901202651 59 248 4.0 5.0 0.00 0.00 0.00 100
20260901202451 59 247 4.0 6.0 0.00 0.00 0.00 100
20260901202250 59 243 4.0 6.0 0.00 0.00 0.00 100
20260901202148 59 240 4.0 6.0 0.00 0.00 0.00 100
20260901202049 59 242 4.0 6.0 0.00 0.00 0.00 100
20260901201847 59 249 5.0 6.0 0.00 0.00 0.00 100
20260901201645 59 247 5.0 6.0 0.00 0.00 0.00 100
20260901201442 59 245 5.0 6.0 0.00 0.00 0.00 100
20260901201241 59 245 5.0 8.0 0.00 0.00 0.00 100
20260901201138 59 255 5.0 8.0 0.00 0.00 0.00 100
20260901201040 59 258 5.0 8.0 0.00 0.00 0.00 100
20260901200839 59 249 5.0 6.0 0.00 0.00 0.00 100
20260901200637 59 244 6.0 7.0 0.00 0.00 0.00 100
20260901200437 59 248 6.0 7.0 0.00 0.00 0.00 100
20260901200234 59 247 5.0 8.0 0.00 0.00 0.00 100
20260901200134 60 251 5.0 8.0 0.00 0.00 0.00 100
20260901200034 60 248 5.0 6.0 0.00 0.00 0.00 100
20260901195832 60 244 5.0 8.0 0.00 0.00 0.00 100
20260901195630 60 250 6.0 8.0 0.00 0.00 0.00 100
20260901195430 60 255 6.0 8.0 0.00 0.00 0.00 100
20260901195229 60 249 6.0 9.0 0.00 0.00 0.00 100
20260901195127 60 245 6.0 9.0 0.00 0.00 0.00 100
20260901195028 60 251 6.0 9.0 0.00 0.00 0.00 100
20260901194824 60 256 6.0 8.0 0.00 0.00 0.00 100
20260901194623 60 258 6.0 7.0 0.00 0.00 0.00 100
20260901194418 60 248 5.0 7.0 0.00 0.00 0.00 100
20260901194217 60 248 5.0 6.0 0.00 0.00 0.00 100
20260901194116 60 248 5.0 7.0 0.00 0.00 0.00 100
20260901194015 60 250 6.0 7.0 0.00 0.00 0.00 100
20260901193813 60 251 5.0 6.0 0.00 0.00 0.00 100
20260901193612 61 254 6.0 7.0 0.00 0.00 0.00 100
20260901193411 61 247 5.0 7.0 0.00 0.00 0.00 100
20260901193209 61 247 4.0 7.0 0.00 0.00 0.00 100
20260901193109 61 248 4.0 6.0 0.00 0.00 0.00 100
20260901193008 61 250 5.0 7.0 0.00 0.00 0.00 100
20260901192806 61 256 5.0 8.0 0.00 0.00 0.00 100
20260901192605 61 253 5.0 8.0 0.00 0.00 0.00 100
20260901192404 61 252 6.0 8.0 0.00 0.00 0.00 100
20260901192202 62 251 6.0 7.0 0.00 0.00 0.00 100
20260901192102 62 251 5.0 7.0 0.00 0.00 0.00 100
20260901192000 62 259 6.0 8.0 0.00 0.00 0.00 100
20260901191759 62 261 7.0 10.0 0.00 0.00 0.00 100
20260901191557 62 253 7.0 10.0 0.00 0.00 0.00 100
20260901191353 61 256 7.0 10.0 0.00 0.00 0.00 100
20260901191151 61 251 6.0 9.0 0.00 0.00 0.00 100
20260901191050 61 247 6.0 8.0 0.00 0.00 0.00 100
20260901190949 62 253 6.0 7.0 0.00 0.00 0.00 100
20260901190747 61 258 6.0 7.0 0.00 0.00 0.00 100
20260901190546 61 252 6.0 9.0 0.00 0.00 0.00 100
20260901190344 61 254 6.0 9.0 0.00 0.00 0.00 100
20260901190142 61 259 6.0 9.0 0.00 0.00 0.00 100
20260901190041 61 266 6.0 8.0 0.00 0.00 0.00 100
20260901185939 61 268 6.0 8.0 0.00 0.00 0.00 100
20260901185749 61 266 6.0 7.0 0.00 0.00 0.00 100
20260901185539 61 262 5.0 6.0 0.00 0.00 0.00 100
20260901185337 61 272 6.0 7.0 0.00 0.00 0.00 100
20260901185136 61 269 6.0 8.0 0.00 0.00 0.00 100
20260901185035 61 274 6.0 8.0 0.00 0.00 0.00 100
20260901184934 62 275 6.0 8.0 0.00 0.00 0.00 100
20260901184733 61 272 6.0 8.0 0.00 0.00 0.00 100
20260901184531 61 278 6.0 8.0 0.00 0.00 0.00 100
20260901184327 61 276 6.0 8.0 0.00 0.00 0.00 100
20260901184125 61 274 6.0 8.0 0.00 0.00 0.00 100
20260901184025 61 272 6.0 8.0 0.00 0.00 0.00 100
20260901183924 61 280 6.0 8.0 0.00 0.00 0.00 100
20260901183723 61 294 5.0 8.0 0.00 0.00 0.00 100
20260901183522 61 288 5.0 7.0 0.00 0.00 0.00 100
20260901183321 61 292 5.0 7.0 0.00 0.00 0.00 100
20260901183130 61 276 5.0 6.0 0.00 0.00 0.00 100
20260901183019 61 287 5.0 6.0 0.00 0.00 0.00 100
20260901182919 61 292 5.0 6.0 0.00 0.00 0.00 100
20260901182718 61 299 5.0 6.0 0.00 0.00 0.00 100
20260901182518 61 289 4.0 5.0 0.00 0.00 0.00 100
20260901182317 61 274 4.0 5.0 0.00 0.00 0.00 100
20260901182116 61 270 5.0 6.0 0.00 0.00 0.00 100
20260901182016 61 275 4.0 6.0 0.00 0.00 0.00 100
20260901181915 61 275 5.0 6.0 0.00 0.00 0.00 100
20260901181714 62 272 4.0 6.0 0.00 0.00 0.00 100
20260901181514 62 266 4.0 6.0 0.00 0.00 0.00 100
20260901181309 62 267 5.0 7.0 0.00 0.00 0.00 100
20260901181109 62 271 5.0 6.0 0.00 0.00 0.00 100
20260901181008 62 275 5.0 7.0 0.00 0.00 0.00 100
20260901180908 62 267 5.0 7.0 0.00 0.00 0.00 100
20260901180708 63 267 5.0 8.0 0.00 0.00 0.00 100
20260901180506 63 270 6.0 9.0 0.00 0.00 0.00 100
20260901180252 63 269 6.0 9.0 0.00 0.00 0.00 100
20260901180052 63 264 6.0 9.0 0.00 0.00 0.00 100
20260901175952 63 263 7.0 9.0 0.00 0.00 0.00 100
20260901175851 63 256 7.0 9.0 0.00 0.00 0.00 100
20260901175650 63 254 7.0 11.0 0.00 0.00 0.00 100
20260901175448 63 250 7.0 9.0 0.00 0.00 0.00 100
20260901175247 63 250 7.0 9.0 0.00 0.00 0.00 100
20260901175043 63 251 6.0 9.0 0.00 0.00 0.00 100
20260901174942 62 250 6.0 8.0 0.00 0.00 0.00 100
20260901174842 62 246 7.0 9.0 0.00 0.00 0.00 100
20260901174641 62 252 7.0 9.0 0.00 0.00 0.00 100
20260901174438 62 246 7.0 9.0 0.00 0.00 0.00 100
20260901174233 62 245 7.0 9.0 0.00 0.00 0.00 100
20260901174032 62 249 6.0 9.0 0.00 0.00 0.00 100
20260901173932 62 251 6.0 9.0 0.00 0.00 0.00 100
20260901173831 62 249 6.0 9.0 0.00 0.00 0.00 100
20260901173631 62 256 6.0 8.0 0.00 0.00 0.00 100
20260901173429 62 254 6.0 8.0 0.00 0.00 0.00 100
20260901173228 62 259 6.0 8.0 0.00 0.00 0.00 100
20260901173025 62 250 6.0 8.0 0.00 0.00 0.00 100
20260901172924 62 249 6.0 8.0 0.00 0.00 0.00 100
20260901172823 62 252 6.0 8.0 0.00 0.00 0.00 100
20260901172621 62 254 6.0 9.0 0.00 0.00 0.00 100
20260901172421 63 256 6.0 9.0 0.00 0.00 0.00 100
20260901172219 63 260 6.0 8.0 0.00 0.00 0.00 100
20260901172019 63 265 6.0 8.0 0.00 0.00 0.00 100
20260901171918 63 265 6.0 8.0 0.00 0.00 0.00 100
20260901171816 63 262 6.0 7.0 0.00 0.00 0.00 100
20260901171616 63 261 6.0 8.0 0.00 0.00 0.00 100
20260901171414 64 270 7.0 9.0 0.00 0.00 0.00 100
20260901171211 64 263 7.0 9.0 0.00 0.00 0.00 100
20260901171009 64 262 7.0 10.0 0.00 0.00 0.00 100
20260901170808 64 260 6.0 8.0 0.00 0.00 0.00 100
20260901170606 64 270 6.0 8.0 0.00 0.00 0.00 100
20260901170405 65 269 6.0 9.0 0.00 0.00 0.00 100
20260901170204 65 263 7.0 9.0 0.00 0.00 0.00 100
20260901170001 65 256 8.0 11.0 0.00 0.00 0.00 100
20260901165900 65 266 8.0 11.0 0.00 0.00 0.00 100
20260901165758 65 266 7.0 10.0 0.00 0.00 0.00 100
20260901165557 66 258 7.0 10.0 0.00 0.00 0.00 100
20260901165355 66 260 8.0 11.0 0.00 0.00 0.00 100
20260901165154 66 259 8.0 11.0 0.00 0.00 0.00 100
20260901164952 66 252 8.0 11.0 0.00 0.00 0.00 100
20260901164851 66 250 8.0 10.0 0.00 0.00 0.00 100
20260901164750 66 252 9.0 13.0 0.00 0.00 0.00 100
20260901164545 66 254 9.0 13.0 0.00 0.00 0.00 100
20260901164344 66 260 8.0 11.0 0.00 0.00 0.00 100
20260901164140 66 257 8.0 11.0 0.00 0.00 0.00 100
20260901163938 66 265 8.0 11.0 0.00 0.00 0.00 100
20260901163836 66 267 8.0 12.0 0.00 0.00 0.00 100
20260901163735 66 260 8.0 12.0 0.00 0.00 0.00 100
20260901163532 66 251 8.0 12.0 0.00 0.00 0.00 100
20260901163329 66 262 6.0 10.0 0.00 0.00 0.00 100
20260901163128 66 254 6.0 10.0 0.00 0.00 0.00 100
20260901162926 66 250 6.0 10.0 0.00 0.00 0.00 100
20260901162825 66 252 6.0 10.0 0.00 0.00 0.00 100
20260901162724 66 255 6.0 8.0 0.00 0.00 0.00 100
20260901162523 66 248 6.0 9.0 0.00 0.00 0.00 100
20260901162321 66 254 6.0 9.0 0.00 0.00 0.00 100
20260901162120 66 261 6.0 9.0 0.00 0.00 0.00 100
20260901161917 66 263 8.0 10.0 0.00 0.00 0.00 100
20260901161815 66 263 8.0 13.0 0.00 0.00 0.00 100
20260901161714 66 259 7.0 13.0 0.00 0.00 0.00 100
20260901161511 67 262 6.0 9.0 0.00 0.00 0.00 100
20260901161309 67 262 7.0 11.0 0.00 0.00 0.00 100
20260901161104 67 265 7.0 11.0 0.00 0.00 0.00 100
20260901160902 67 257 7.0 10.0 0.00 0.00 0.00 100
20260901160802 67 265 7.0 10.0 0.00 0.00 0.00 100
20260901160701 67 269 7.0 10.0 0.00 0.00 0.00 100
20260901160509 67 270 7.0 12.0 0.00 0.00 0.00 100
20260901160256 67 269 10.0 14.0 0.00 0.00 0.00 100
20260901160055 67 267 9.0 14.0 0.00 0.00 0.00 100
20260901155852 67 262 8.0 14.0 0.00 0.00 0.00 100
20260901155752 68 255 8.0 14.0 0.00 0.00 0.00 100
20260901155651 68 254 8.0 14.0 0.00 0.00 0.00 100
20260901155450 68 249 8.0 12.0 0.00 0.00 0.00 100
20260901155248 69 265 9.0 13.0 0.00 0.00 0.00 100
20260901155045 69 253 8.0 14.0 0.00 0.00 0.00 100
20260901154844 69 257 7.0 9.0 0.00 0.00 0.00 100
20260901154744 69 257 6.0 9.0 0.00 0.00 0.00 100
20260901154644 69 257 5.0 9.0 0.00 0.00 0.00 100
20260901154443 69 246 5.0 9.0 0.00 0.00 0.00 100
20260901154242 69 250 7.0 9.0 0.00 0.00 0.00 100
20260901154038 69 250 7.0 10.0 0.00 0.00 0.00 100
20260901153837 69 249 7.0 15.0 0.00 0.00 0.00 100
20260901153736 69 248 8.0 15.0 0.00 0.00 0.00 100
20260901153635 69 248 8.0 15.0 0.00 0.00 0.00 100
20260901153434 70 239 6.0 9.0 0.00 0.00 0.00 100
20260901153231 70 231 5.0 8.0 0.00 0.00 0.00 100
20260901153030 70 235 6.0 9.0 0.00 0.00 0.00 100
20260901152830 71 228 6.0 10.0 0.00 0.00 0.00 100
20260901152729 71 233 7.0 11.0 0.00 0.00 0.00 100
20260901152414 73 232 10.0 15.0 0.00 0.00 0.00 100
20260901152213 74 237 9.0 15.0 0.00 0.00 0.00 100
20260901152012 74 237 8.0 13.0 0.00 0.00 0.00 100
20260901151812 75 249 9.0 13.0 0.00 0.00 0.00 100
20260901151710 75 257 10.0 15.0 0.00 0.00 0.00 100
20260901151610 75 251 9.0 15.0 0.00 0.00 0.00 100
20260901151409 75 250 8.0 11.0 0.00 0.00 0.00 100
20260901151207 75 249 8.0 13.0 0.00 0.00 0.00 100
20260901151007 75 253 9.0 13.0 0.00 0.00 0.00 100
20260901150807 75 241 10.0 17.0 0.00 0.00 0.00 100
20260901150702 76 236 9.0 17.0 0.00 0.00 0.00 100
20260901150605 75 229 8.0 13.0 0.00 0.00 0.00 100
20260901150402 75 230 8.0 12.0 0.00 0.00 0.00 100
20260901150159 74 239 8.0 12.0 0.00 0.00 0.00 100
20260901150000 73 236 8.0 11.0 0.00 0.00 0.00 100
20260901145759 72 243 9.0 13.0 0.00 0.00 0.00 100
20260901145658 72 247 9.0 13.0 0.00 0.00 0.00 100
20260901145558 72 244 9.0 13.0 0.00 0.00 0.00 100
20260901145357 74 247 9.0 13.0 0.00 0.00 0.00 100
20260901145152 75 248 9.0 13.0 0.00 0.00 0.00 100
20260901144953 75 235 6.0 9.0 0.00 0.00 0.00 100
20260901144753 76 229 7.0 13.0 0.00 0.00 0.00 100
20260901144650 76 236 8.0 13.0 0.00 0.00 0.00 100
20260901144551 76 247 10.0 14.0 0.00 0.00 0.00 100
20260901144351 74 259 10.0 14.0 0.00 0.00 0.00 100
20260901144146 73 246 8.0 17.0 0.00 0.00 0.00 100
20260901143948 74 235 10.0 17.0 0.00 0.00 0.00 100
20260901143757 75 231 7.0 11.0 0.00 0.00 0.00 100
20260901143642 75 233 8.0 13.0 0.00 0.00 0.00 100
20260901143546 75 230 9.0 13.0 0.00 0.00 0.00 100
20260901143343 75 228 9.0 12.0 0.00 0.00 0.00 100
20260901143138 75 236 11.0 18.0 0.00 0.00 0.00 100
20260901142940 75 237 11.0 18.0 0.00 0.00 0.00 100
20260901142737 73 236 11.0 15.0 0.00 0.00 0.00 100
20260901142635 73 238 10.0 15.0 0.00 0.00 0.00 100
20260901142536 73 230 9.0 14.0 0.00 0.00 0.00 100
20260901142335 73 235 7.0 12.0 0.00 0.00 0.00 100
20260901142130 74 241 9.0 13.0 0.00 0.00 0.00 100
20260901141931 75 241 11.0 18.0 0.00 0.00 0.00 100
20260901141730 77 243 11.0 17.0 0.00 0.00 0.00 100
20260901141626 78 247 12.0 17.0 0.00 0.00 0.00 100
20260901141528 78 244 13.0 17.0 0.00 0.00 0.00 100
20260901141325 77 235 10.0 16.0 0.00 0.00 0.00 100
20260901141133 77 237 6.0 8.0 0.00 0.00 0.00 100
20260901141121 77 237 6.0 9.0 0.00 0.00 0.00 100
20260901140921 76 249 8.0 12.0 0.00 0.00 0.00 100
20260901140720 75 249 10.0 14.0 0.00 0.00 0.00 100
20260901140615 76 245 10.0 14.0 0.00 0.00 0.00 100
20260901140319 78 235 9.0 15.0 0.00 0.00 0.00 100
20260901140112 77 232 8.0 13.0 0.00 0.00 0.00 100
20260901135917 77 251 10.0 14.0 0.00 0.00 0.00 100
20260901135716 77 248 7.0 14.0 0.00 0.00 0.00 100
20260901135609 77 242 9.0 18.0 0.00 0.00 0.00 100
20260901135514 77 236 10.0 18.0 0.00 0.00 0.00 100
20260901135312 77 234 9.0 14.0 0.00 0.00 0.00 100
20260901135107 77 240 10.0 17.0 0.00 0.00 0.00 100
20260901134911 77 241 10.0 19.0 0.00 0.00 0.00 100
20260901134711 77 240 11.0 19.0 0.00 0.00 0.00 100
20260901134605 77 242 10.0 14.0 0.00 0.00 0.00 100
20260901134511 77 252 10.0 16.0 0.00 0.00 0.00 100
20260901134308 76 245 12.0 16.0 0.00 0.00 0.00 100
20260901134100 76 253 14.0 20.0 0.00 0.00 0.00 100
20260901133905 76 244 13.0 20.0 0.00 0.00 0.00 100
20260901133702 76 237 13.0 19.0 0.00 0.00 0.00 100
20260901133552 75 234 14.0 20.0 0.00 0.00 0.00 100
20260901133501 75 234 13.0 20.0 0.00 0.00 0.00 100
20260901133300 75 230 13.0 20.0 0.00 0.00 0.00 100
20260901133049 75 227 13.0 20.0 0.00 0.00 0.00 100
20260901132857 76 240 12.0 18.0 0.00 0.00 0.00 100
20260901132656 75 233 10.0 18.0 0.00 0.00 0.00 100
20260901132545 74 232 10.0 15.0 0.00 0.00 0.00 100
20260901132454 74 227 12.0 19.0 0.00 0.00 0.00 100
20260901132253 75 245 14.0 21.0 0.00 0.00 0.00 100
20260901132041 76 244 11.0 17.0 0.00 0.00 0.00 100
20260901131839 76 234 10.0 15.0 0.00 0.00 0.00 100
20260901131638 76 236 10.0 15.0 0.00 0.00 0.00 100
20260901131538 75 227 10.0 15.0 0.00 0.00 0.00 100
20260901131437 75 222 10.0 15.0 0.00 0.00 0.00 100
20260901131236 76 237 12.0 18.0 0.00 0.00 0.00 100
20260901131045 76 240 10.0 18.0 0.00 0.00 0.00 100
20260901131035 76 238 10.0 18.0 0.00 0.00 0.00 100
20260901130831 76 240 9.0 16.0 0.00 0.00 0.00 100